This is the latest recevied weather packets stored in our database for station/object N8BAP. If no packets are shown the sender has not sent any weather packets the latest 10 day(s).
| Time | Temp. | Humidity | Pressure | Rain* | Wind** | Luminosity | Snow |
|---|---|---|---|---|---|---|---|
| 1787970230 | 18.33° C | 91% | 1026.3 hPa | 0 mm | - | 0 W/m² | - |
| 1787969925 | 18.33° C | 93% | 1026.2 hPa | 0 mm | - | 0 W/m² | - |
| 1787969624 | 17.78° C | 93% | 1026.4 hPa | 0 mm | - | 0 W/m² | - |
| 1787969323 | 17.78° C | 92% | 1026.2 hPa | 0 mm | - | 0 W/m² | - |
| 1787969023 | 18.33° C | 92% | 1026.4 hPa | 0 mm | - | 0 W/m² | - |
| 1787968718 | 18.33° C | 91% | 1026.2 hPa | 0 mm | - | 0 W/m² | - |
| 1787968417 | 18.33° C | 91% | 1026.2 hPa | 0 mm | - | 0 W/m² | - |
| 1787968113 | 18.33° C | 91% | 1026.3 hPa | 0 mm | - | 0 W/m² | - |
| 1787967811 | 18.89° C | 91% | 1026.1 hPa | 0 mm | - | 0 W/m² | - |
| 1787967509 | 18.89° C | 90% | 1026 hPa | 0 mm | - | 0 W/m² | - |
| 1787967204 | 18.89° C | 90% | 1026.2 hPa | 0 mm | - | 0 W/m² | - |
| 1787966900 | 18.89° C | 90% | 1026.1 hPa | 0 mm | - | 0 W/m² | - |
| 1787966596 | 18.89° C | 91% | 1026.1 hPa | 0 mm | - | 0 W/m² | - |
| 1787966295 | 18.89° C | 90% | 1026.2 hPa | 0 mm | - | 0 W/m² | - |
| 1787965990 | 18.89° C | 89% | 1025.7 hPa | 0 mm | - | 0 W/m² | - |
| 1787965685 | 19.44° C | 89% | 1025.7 hPa | 0 mm | - | 0 W/m² | - |
| 1787965380 | 19.44° C | 89% | 1025.6 hPa | 0 mm | - | 0 W/m² | - |
| 1787965078 | 19.44° C | 88% | 1025.7 hPa | 0 mm | - | 0 W/m² | - |
| 1787964768 | 19.44° C | 88% | 1025.5 hPa | 0 mm | - | 0 W/m² | - |
| 1787964462 | 20° C | 87% | 1025.7 hPa | 0 mm | - | 0 W/m² | - |
| 1787964158 | 20° C | 86% | 1025.4 hPa | 0 mm | - | 0 W/m² | - |
| 1787963857 | 20.56° C | 85% | 1025.6 hPa | 0 mm | - | 0 W/m² | - |
| 1787963552 | 20.56° C | 85% | 1025 hPa | 0 mm | - | 0 W/m² | - |
| 1787963247 | 20.56° C | 84% | 1025.1 hPa | 0 mm | - | 0 W/m² | - |
| 1787962946 | 21.11° C | 83% | 1025 hPa | 0 mm | - | 0 W/m² | - |
* Rain latest hour (hover to see other rain measurements)
** Current wind speed in m/s (hover to see current wind gust speed)